User: anonymous   Login
Location: Bazugues
(43.4465°N, 0.3432°E)
Time: 08:31:42
(UTC+00:00)
Language:

PSLV R/B - Orbit

View from above orbital plane
View from above orbital plane
View from above satellite
View from above satellite

Ground track
Ground track

The orbit is defined by the following mean orbital elements,

1 29713U          26075.80414896 +.00000000 +00000-0 +20880-3 0 00006
2 29713  98.0284 105.5107 0020331  53.1309 307.1772 14.97960596    07
Epoch (UTC): 16 March 2026 19:17:58
Eccentricity: 0.0020331
inclination: 98.0284°
perigee height: 559 km
apogee height: 587 km
right ascension of ascending node: 105.5107°
argument of perigee: 53.1309°
revolutions per day: 14.97960596
mean anomaly at epoch: 307.1772°

The dashed part of the orbit path shows where the satellite is in the earth's shadow,  

DLR